Weather observations for the past three days for
Kaunakakai, Molokai Airport
Imperial (Metric)
Date Time (hst) Wind (mph) Vis. (mi.) Weather Sky Cond. Temperature (ºF) Relative Humidity Wind Chill (°F) Heat Index (°F) Pressure Precipitation (in)
Air Dwpt 6 hour altimeter (in) sea level (mb) 1 hr 3 hr 6 hr
Max. Min.
22 15:54 NE 16 G 28 10.00 A Few Clouds FEW040 81 66.9 62% 83 30.04 1017.2
22 14:54 NE 16 G 29 10.00 A Few Clouds FEW023 82 68 63% 85 30.05 1017.7
22 13:54 NE 15 G 28 10.00 Fair CLR 84.9 64.9 86 78.1 51% 87 30.06 1018.1
22 12:54 NE 15 G 30 10.00 A Few Clouds FEW040 84 64.9 53% 86 30.08 1018.6
22 11:54 NE 16 G 28 10.00 Fair CLR 82.9 68 61% 86 30.09 1019.1
22 10:54 E 20 G 32 10.00 Fair CLR 82.9 64.9 55% 85 30.11 1019.5
22 09:54 NE 15 G 35 10.00 Fair CLR 82 66.9 60% 85 30.11 1019.6
22 08:54 NE 16 G 31 10.00 Fair CLR 80.1 68 67% 83 30.11 1019.6
22 07:54 E 14 G 26 10.00 Fair CLR 78.1 68 78.1 73 71% 80 30.11 1019.6
22 06:54 NE 13 G 21 10.00 Fair CLR 77 68 74% 79 30.09 1019.0
22 05:54 E 14 G 24 10.00 Fair CLR 75 68 79% 76 30.07 1018.5
22 04:54 NE 9 10.00 Fair CLR 75 66.9 76% 76 30.07 1018.1
22 03:54 E 6 10.00 Fair CLR 73.9 63 69% 30.07 1018.1
22 02:54 NE 7 10.00 Fair CLR 75 66.9 76% 76 30.07 1018.2
22 01:54 E 12 10.00 Fair CLR 75 64.9 78.1 73.9 71% 77 30.08 1018.7
22 00:54 NE 6 10.00 Fair CLR 75 64 69% 77 30.1 1019.2
21 23:54 NE 6 10.00 Fair CLR 75 64 69% 77 30.12 1019.9
21 22:54 NE 6 10.00 Fair CLR 75.9 64.9 69% 78 30.13 1020.2
21 21:54 E 7 10.00 Fair CLR 75.9 64 67% 78 30.12 1020.0
21 20:54 NE 7 10.00 A Few Clouds FEW040 77 64 64% 79 30.11 1019.5
21 19:54 E 5 10.00 Fair CLR 78.1 64.9 86 78.1 64% 80 30.09 1019.1
21 18:54 E 6 10.00 Fair CLR 81 66 61% 83 30.07 1018.3
21 17:54 E 10 10.00 Partly Cloudy SCT039 84 66.9 57% 87 30.05 1017.7
21 16:54 NE 12 10.00 A Few Clouds FEW038 84.9 69.1 59% 89 30.05 1017.5
21 15:54 NE 10 10.00 A Few Clouds FEW042 82.9 68 61% 86 30.05 1017.6
21 14:54 Vrbl 6 10.00 A Few Clouds FEW042 84 66.9 57% 87 30.06 1017.8
21 13:54 E 14 G 24 10.00 Mostly Cloudy BKN042 84 66.9 88 80.1 57% 87 30.07 1018.2
21 12:54 NE 16 G 26 10.00 Partly Cloudy FEW042 SCT055 84.9 68 57% 88 30.08 1018.6
21 11:54 NE 13 G 28 10.00 A Few Clouds FEW033 84.9 69.1 59% 89 30.09 1019.0
21 10:54 NE 14 G 28 10.00 Partly Cloudy SCT033 84.9 68 57% 88 30.1 1019.4
21 09:54 NE 10 G 20 10.00 Partly Cloudy SCT039 SCT045 82 68 63% 85 30.11 1019.5
21 08:54 NE 12 10.00 Partly Cloudy SCT038 82 66 58% 84 30.1 1019.3
21 07:54 E 10 10.00 Fair CLR 81 66.9 81 73 62% 83 30.09 1019.1
21 06:54 NE 9 G 18 10.00 Fair CLR 75.9 66.9 74% 77 30.08 1018.8
21 05:54 NE 12 G 21 10.00 Fair CLR 75 66.9 76% 76 30.08 1018.6
21 04:54 NE 9 10.00 Fair CLR 75 68 79% 76 30.07 1018.2
21 03:54 E 8 10.00 Fair CLR 73.9 66.9 79% 30.07 1018.2
21 02:54 E 9 10.00 Fair CLR 73.9 66 76% 30.06 1018.1
21 01:54 NE 5 10.00 Fair CLR 75 68 78.1 75 79% 76 30.06 1018.0
21 00:54 NE 6 10.00 Fair CLR 75.9 68 77% 77 30.08 1018.6
20 23:54 NE 8 10.00 Fair CLR 75.9 68 77% 77 30.08 1018.7
20 22:54 E 6 10.00 A Few Clouds FEW039 75 66 74% 76 30.09 1019.1
20 21:54 NE 8 10.00 Fair CLR 77 66 69% 79 30.09 1018.9
20 20:54 NE 8 10.00 Fair CLR 78.1 66 67% 80 30.08 1018.5
20 19:54 NE 8 G 17 10.00 Mostly Cloudy BKN095 78.1 69.1 90 78.1 74% 80 30.06 1018.1
20 18:54 SE 6 10.00 A Few Clouds FEW044 82 66.9 60% 85 30.04 1017.3
20 17:54 NE 9 G 22 10.00 Mostly Cloudy FEW043 BKN070 84.9 69.1 59% 89 30.02 1016.5
20 16:54 Vrbl 7 10.00 Partly Cloudy FEW041 SCT049 87.1 69.1 55% 91 30 1016.1
20 15:54 E 6 10.00 Mostly Cloudy SCT044 BKN065 88 68 52% 92 30.01 1016.2
20 14:54 NE 10 G 20 10.00 Mostly Cloudy FEW045 BKN060 84.9 68 57% 88 30.02 1016.5
20 13:54 E 14 G 22 10.00 Mostly Cloudy BKN065 89.1 69.1 89.1 80.1 52% 94 30.02 1016.6
20 12:54 E 12 10.00 Overcast FEW037 SCT049 OVC055 84.9 69.1 59% 89 30.04 1017.3
20 11:54 Vrbl 5 10.00 Fair CLR 87.1 66.9 51% 90 30.05 1017.6
20 10:54 SE 6 10.00 Partly Cloudy SCT034 86 66.9 53% 89 30.06 1017.9
20 09:54 Vrbl 6 10.00 Partly Cloudy SCT032 82.9 66.9 59% 86 30.07 1018.3
20 08:54 SE 9 10.00 Fair CLR 82 68 63% 85 30.08 1018.5
20 07:54 NE 7 10.00 A Few Clouds FEW033 80.1 69.1 80.1 72 69% 83 30.07 1018.3
20 06:54 E 8 10.00 A Few Clouds FEW031 75.9 69.1 79% 77 30.06 1018.1
20 05:54 NE 5 10.00 Fair CLR 73 66 79% 30.05 1017.7
20 04:54 NE 7 10.00 Fair CLR 73 66.9 81% 30.03 1017.1
20 03:54 E 6 10.00 Fair CLR 73 66 79% 30.04 1017.5
20 02:54 E 10 G 18 10.00 Fair CLR 73.9 68 82% 30.04 1017.4
20 01:54 NE 9 G 20 10.00 Fair CLR 73.9 69.1 75.9 73.9 85% 30.05 1017.8
20 00:54 Calm 10.00 Fair CLR 73.9 69.1 85% 30.08 1018.6
19 23:54 NE 8 10.00 Fair CLR 73.9 69.1 85% 30.09 1018.9
19 22:54 NE 10 G 20 10.00 Fair CLR 75 68 79% 76 30.09 1019.0
19 21:54 NE 9 10.00 Fair CLR 75 68 79% 76 30.08 1018.9
19 20:54 NE 15 G 25 10.00 Fair CLR 75 68 79% 76 30.07 1018.6
19 19:54 NE 9 G 25 10.00 Fair CLR 75.9 68 84.9 75.9 77% 77 30.07 1018.3
19 18:54 NE 13 G 22 10.00 Fair CLR 77 68 74% 79 30.05 1017.7
19 17:54 NE 18 G 29 10.00 Fair CLR 79 66.9 67% 81 30.03 1017.2
19 16:54 NE 16 G 29 10.00 Fair CLR 81 68 65% 84 30.02 1016.8
Date Time (hst) Wind (mph) Vis. (mi.) Weather Sky Cond. Air Dwpt Max. Min. Relative Humidity Wind Chill (°F) Heat Index (°F) altimeter (in) sea level (mb) 1 hr 3 hr 6 hr
6 hour
Temperature (ºF) Pressure Precipitation (in)